sat.trackr.live / text

‹ back to catalog

STARLINK-4281

NORAD 53017 · 2022-076AH

PAYLOAD ACTIVE UNKNOWN

§ Identity

Operator
Country
US
Launch date
2022-07-07
Launch site
AFETR
Launch vehicle
Mass (kg)
RCS (m²)

Purposes: comms

External: N2YO · Heavens-Above · Gunter

§ Orbital elements

Epoch: 2026-05-25T06:00:02.000160Z

Period
93.59 min
Inclination
53.2144°
Eccentricity
0.0001655
Mean motion
15.38594388 rev/d
Perigee alt
449.1 km
Apogee alt
451.4 km
Semi-major
6,828.4 km
B*
1.7380e-2
RAAN
94.7465°
Arg perigee
69.8296°
Mean anomaly
302.9981°
Rev number
589

§ Raw data

STARLINK-42811 53017U 22076AH  26145.25002315  .00729495  00000+0  17380-1 0  99942 53017  53.2144  94.7465 0001655  69.8296 302.9981 15.38594388  5897

JSON: /api/v1/satellites/53017 · /tle

For live sub-satellite position, see the globe view (requires WebGL).

§ Visibility from observer

Set your observer location to see the next 7 days of passes ≥ 10°. The values pass through the URL so the page stays shareable.

No JS? Fill the form by hand. The geolocation button needs JavaScript.